Time,TemperatureF,DewpointF,PressureIn,WindDirection,WindDirectionDegrees,WindSpeedMPH,WindSpeedGustMPH,Humidity,HourlyPrecipIn,Conditions,Clouds,dailyrainin,SoftwareType,DateUTC
2013-03-07 00:00:00,36.4,34.6,29.94,North,1,0.0,0.0,93,0.00,,,0.00,Wunderground v.1.15,2013-03-07 08:00:00,
2013-03-07 00:10:00,36.4,34.6,29.94,NW,325,0.0,0.0,93,0.00,,,0.00,Wunderground v.1.15,2013-03-07 08:10:00,
2013-03-07 00:20:00,35.9,34.3,29.94,NW,325,0.0,0.0,94,0.00,,,0.00,Wunderground v.1.15,2013-03-07 08:20:00,
2013-03-07 00:25:00,35.7,34.1,29.94,NW,325,0.0,0.0,94,0.00,,,0.00,Wunderground v.1.15,2013-03-07 08:25:00,
2013-03-07 00:30:00,35.6,34.0,29.94,NW,325,0.0,0.0,94,0.00,,,0.00,Wunderground v.1.15,2013-03-07 08:30:00,
2013-03-07 00:36:00,35.6,34.0,29.94,NW,325,0.0,0.0,94,0.00,,,0.00,Wunderground v.1.15,2013-03-07 08:36:00,
2013-03-07 00:45:00,35.4,33.8,29.94,NW,325,0.0,0.0,94,0.00,,,0.00,Wunderground v.1.15,2013-03-07 08:45:00,
2013-03-07 00:50:00,35.2,33.6,29.94,NW,325,0.0,0.0,94,0.00,,,0.00,Wunderground v.1.15,2013-03-07 08:50:00,
2013-03-07 00:55:00,35.0,33.4,29.94,NW,325,0.0,0.0,94,0.00,,,0.00,Wunderground v.1.15,2013-03-07 08:55:00,
2013-03-07 01:00:00,35.1,33.8,29.95,NW,325,0.0,0.0,95,0.00,,,0.00,Wunderground v.1.15,2013-03-07 09:00:00,
2013-03-07 01:05:00,35.0,33.7,29.95,NW,325,0.0,0.0,95,0.00,,,0.00,Wunderground v.1.15,2013-03-07 09:05:00,
2013-03-07 01:15:00,35.2,33.9,29.95,NW,325,0.0,0.0,95,0.00,,,0.00,Wunderground v.1.15,2013-03-07 09:15:00,
2013-03-07 01:20:00,35.2,33.6,29.95,NW,326,0.0,0.0,94,0.00,,,0.00,Wunderground v.1.15,2013-03-07 09:20:00,
2013-03-07 01:25:00,35.2,33.9,29.95,NW,326,0.0,0.0,95,0.00,,,0.00,Wunderground v.1.15,2013-03-07 09:25:00,
2013-03-07 01:30:00,35.4,34.1,29.95,NW,326,0.0,0.0,95,0.00,,,0.00,Wunderground v.1.15,2013-03-07 09:30:00,
2013-03-07 01:35:00,35.5,33.9,29.95,NW,326,0.0,0.0,94,0.00,,,0.00,Wunderground v.1.15,2013-03-07 09:35:00,
2013-03-07 01:40:00,35.4,33.8,29.95,NW,326,0.0,0.0,94,0.00,,,0.00,Wunderground v.1.15,2013-03-07 09:40:00,
2013-03-07 01:50:00,35.4,33.8,29.95,NW,326,0.0,0.0,94,0.00,,,0.00,Wunderground v.1.15,2013-03-07 09:50:00,
2013-03-07 01:55:00,35.2,33.6,29.95,NW,326,0.0,0.0,94,0.00,,,0.00,Wunderground v.1.15,2013-03-07 09:55:00,
2013-03-07 02:00:00,34.9,33.3,29.94,NW,326,0.0,0.0,94,0.00,,,0.00,Wunderground v.1.15,2013-03-07 10:00:00,
2013-03-07 02:05:00,34.7,33.2,29.94,NW,326,0.0,0.0,94,0.00,,,0.00,Wunderground v.1.15,2013-03-07 10:05:00,
2013-03-07 02:15:00,34.3,32.8,29.94,NW,326,0.0,0.0,94,0.00,,,0.00,Wunderground v.1.15,2013-03-07 10:15:00,
2013-03-07 02:20:00,34.1,32.8,29.94,NW,326,0.0,0.0,95,0.00,,,0.00,Wunderground v.1.15,2013-03-07 10:20:00,
2013-03-07 02:30:00,33.8,32.5,29.94,NW,326,0.0,0.0,95,0.00,,,0.00,Wunderground v.1.15,2013-03-07 10:30:00,
2013-03-07 02:35:00,34.0,33.0,29.94,NW,326,0.0,0.0,96,0.00,,,0.00,Wunderground v.1.15,2013-03-07 10:35:00,
2013-03-07 02:40:00,34.0,33.0,29.94,NW,326,0.0,0.0,96,0.00,,,0.00,Wunderground v.1.15,2013-03-07 10:40:00,
2013-03-07 02:45:00,34.0,33.0,29.93,NW,326,0.0,0.0,96,0.00,,,0.00,Wunderground v.1.15,2013-03-07 10:45:00,
2013-03-07 02:50:00,33.9,32.9,29.93,NW,326,0.0,0.0,96,0.00,,,0.00,Wunderground v.1.15,2013-03-07 10:50:00,
2013-03-07 03:00:00,34.0,33.0,29.93,NW,326,0.0,0.0,96,0.00,,,0.00,Wunderground v.1.15,2013-03-07 11:00:00,
2013-03-07 03:05:00,34.1,33.1,29.92,NW,326,0.0,0.0,96,0.00,,,0.00,Wunderground v.1.15,2013-03-07 11:05:00,
2013-03-07 03:11:00,34.1,33.1,29.92,NW,326,0.0,0.0,96,0.00,,,0.00,Wunderground v.1.15,2013-03-07 11:11:00,
2013-03-07 03:20:00,34.3,33.3,29.92,NW,326,0.0,0.0,96,0.00,,,0.00,Wunderground v.1.15,2013-03-07 11:20:00,
2013-03-07 03:25:00,34.5,33.5,29.92,NW,326,0.0,0.0,96,0.00,,,0.00,Wunderground v.1.15,2013-03-07 11:25:00,
2013-03-07 03:30:00,34.5,33.5,29.92,NW,326,0.0,0.0,96,0.00,,,0.00,Wunderground v.1.15,2013-03-07 11:30:00,
2013-03-07 03:40:00,34.8,33.8,29.92,NW,326,0.0,0.0,96,0.00,,,0.00,Wunderground v.1.15,2013-03-07 11:40:00,
2013-03-07 03:45:00,34.8,33.8,29.92,NW,326,0.0,0.0,96,0.00,,,0.00,Wunderground v.1.15,2013-03-07 11:45:00,
2013-03-07 03:50:00,34.9,33.9,29.92,NW,326,0.0,0.0,96,0.00,,,0.00,Wunderground v.1.15,2013-03-07 11:50:00,
2013-03-07 03:55:00,35.0,34.0,29.92,NW,326,0.0,0.0,96,0.00,,,0.00,Wunderground v.1.15,2013-03-07 11:55:00,
2013-03-07 04:05:00,35.0,34.0,29.92,NW,326,0.0,0.0,96,0.00,,,0.00,Wunderground v.1.15,2013-03-07 12:05:00,
2013-03-07 04:11:00,34.7,33.4,29.92,NW,326,0.0,0.0,95,0.00,,,0.00,Wunderground v.1.15,2013-03-07 12:11:00,
2013-03-07 04:20:00,34.9,33.9,29.92,NW,326,0.0,0.0,96,0.00,,,0.00,Wunderground v.1.15,2013-03-07 12:20:00,
2013-03-07 04:25:00,35.1,34.1,29.92,NW,326,0.0,0.0,96,0.00,,,0.00,Wunderground v.1.15,2013-03-07 12:25:00,
2013-03-07 04:31:00,35.1,33.8,29.92,NW,326,0.0,0.0,95,0.00,,,0.00,Wunderground v.1.15,2013-03-07 12:31:00,
2013-03-07 04:40:00,34.9,33.6,29.92,NW,321,0.0,0.0,95,0.00,,,0.00,Wunderground v.1.15,2013-03-07 12:40:00,
2013-03-07 04:45:00,34.9,33.9,29.92,NW,321,0.0,0.0,96,0.00,,,0.00,Wunderground v.1.15,2013-03-07 12:45:00,
2013-03-07 04:50:00,34.9,33.9,29.92,NW,321,0.0,0.0,96,0.00,,,0.00,Wunderground v.1.15,2013-03-07 12:50:00,
2013-03-07 04:55:00,35.0,34.0,29.92,NW,321,0.0,0.0,96,0.00,,,0.00,Wunderground v.1.15,2013-03-07 12:55:00,
2013-03-07 05:00:00,35.0,34.0,29.93,NW,321,0.0,0.0,96,0.00,,,0.00,Wunderground v.1.15,2013-03-07 13:00:00,
2013-03-07 05:06:00,35.0,34.0,29.93,NW,320,0.0,0.0,96,0.00,,,0.00,Wunderground v.1.15,2013-03-07 13:06:00,
2013-03-07 05:15:00,34.9,33.9,29.92,NW,320,0.0,0.0,96,0.00,,,0.00,Wunderground v.1.15,2013-03-07 13:15:00,
2013-03-07 05:20:00,34.7,33.7,29.92,NW,320,0.0,0.0,96,0.00,,,0.00,Wunderground v.1.15,2013-03-07 13:20:00,
2013-03-07 05:25:00,34.7,33.7,29.92,NW,320,0.0,0.0,96,0.00,,,0.00,Wunderground v.1.15,2013-03-07 13:25:00,
2013-03-07 05:30:00,34.7,33.7,29.92,NW,320,0.0,0.0,96,0.00,,,0.00,Wunderground v.1.15,2013-03-07 13:30:00,
2013-03-07 05:35:00,34.6,33.6,29.92,NW,320,0.0,0.0,96,0.00,,,0.00,Wunderground v.1.15,2013-03-07 13:35:00,
2013-03-07 05:40:00,34.5,33.5,29.92,NW,321,0.0,0.0,96,0.00,,,0.00,Wunderground v.1.15,2013-03-07 13:40:00,
2013-03-07 05:50:00,34.6,33.6,29.91,NW,321,0.0,0.0,96,0.00,,,0.00,Wunderground v.1.15,2013-03-07 13:50:00,
2013-03-07 05:55:00,34.6,33.6,29.91,NW,321,0.0,0.0,96,0.00,,,0.00,Wunderground v.1.15,2013-03-07 13:55:00,
2013-03-07 06:00:00,34.8,34.0,29.91,NW,321,0.0,0.0,97,0.00,,,0.00,Wunderground v.1.15,2013-03-07 14:00:00,
2013-03-07 06:05:00,34.9,34.1,29.91,NW,321,0.0,0.0,97,0.00,,,0.00,Wunderground v.1.15,2013-03-07 14:05:00,
2013-03-07 06:15:00,34.9,34.1,29.91,NW,321,0.0,0.0,97,0.00,,,0.00,Wunderground v.1.15,2013-03-07 14:15:00,
2013-03-07 06:20:00,34.9,33.9,29.91,NW,321,0.0,0.0,96,0.00,,,0.00,Wunderground v.1.15,2013-03-07 14:20:00,
2013-03-07 06:35:00,35.1,34.3,29.91,NW,321,0.0,0.0,97,0.00,,,0.00,Wunderground v.1.15,2013-03-07 14:35:00,
2013-03-07 06:45:00,35.1,34.1,29.91,NW,321,0.0,0.0,96,0.00,,,0.00,Wunderground v.1.15,2013-03-07 14:45:00,
2013-03-07 06:50:00,35.3,34.3,29.91,NW,321,0.0,0.0,96,0.00,,,0.00,Wunderground v.1.15,2013-03-07 14:50:00,
2013-03-07 07:00:00,35.4,34.4,29.92,NNE,15,0.0,0.0,96,0.00,,,0.00,Wunderground v.1.15,2013-03-07 15:00:00,
2013-03-07 07:11:00,36.1,35.1,29.92,NNE,13,0.0,0.0,96,0.00,,,0.00,Wunderground v.1.15,2013-03-07 15:11:00,
2013-03-07 07:20:00,36.2,35.2,29.92,NNE,13,0.0,0.0,96,0.00,,,0.00,Wunderground v.1.15,2013-03-07 15:20:00,
2013-03-07 07:25:00,36.3,35.3,29.92,NNE,13,0.0,0.0,96,0.00,,,0.00,Wunderground v.1.15,2013-03-07 15:25:00,
2013-03-07 07:30:00,36.3,35.3,29.92,NNE,13,0.0,0.0,96,0.00,,,0.00,Wunderground v.1.15,2013-03-07 15:30:00,
2013-03-07 07:35:00,36.5,35.5,29.92,NNE,13,0.0,0.0,96,0.00,,,0.00,Wunderground v.1.15,2013-03-07 15:35:00,
2013-03-07 07:40:00,36.7,35.7,29.92,NNE,13,0.0,0.0,96,0.00,,,0.00,Wunderground v.1.15,2013-03-07 15:40:00,
2013-03-07 07:50:00,37.1,36.1,29.92,NNE,13,0.0,0.0,96,0.00,,,0.00,Wunderground v.1.15,2013-03-07 15:50:00,
2013-03-07 07:55:00,37.4,36.4,29.92,NNE,13,0.0,0.0,96,0.00,,,0.00,Wunderground v.1.15,2013-03-07 15:55:00,
2013-03-07 08:00:00,37.6,36.6,29.92,NNE,13,0.0,0.0,96,0.00,,,0.00,Wunderground v.1.15,2013-03-07 16:00:00,
2013-03-07 08:05:00,37.9,36.6,29.92,NNE,13,0.0,0.0,95,0.00,,,0.00,Wunderground v.1.15,2013-03-07 16:05:00,
2013-03-07 08:15:00,38.6,37.0,29.92,WSW,246,0.0,0.0,94,0.00,,,0.00,Wunderground v.1.15,2013-03-07 16:15:00,
2013-03-07 08:20:00,39.1,37.8,29.92,WSW,246,0.0,0.0,95,0.00,,,0.00,Wunderground v.1.15,2013-03-07 16:20:00,
2013-03-07 08:26:00,39.6,38.0,29.92,WSW,246,0.0,0.0,94,0.00,,,0.00,Wunderground v.1.15,2013-03-07 16:26:00,
2013-03-07 08:35:00,40.7,39.1,29.92,SE,136,0.0,0.0,94,0.00,,,0.00,Wunderground v.1.15,2013-03-07 16:35:00,
2013-03-07 08:40:00,41.4,39.5,29.92,ESE,116,0.0,0.0,93,0.00,,,0.00,Wunderground v.1.15,2013-03-07 16:40:00,
2013-03-07 08:45:00,41.7,39.3,29.91,East,87,0.0,0.0,91,0.00,,,0.00,Wunderground v.1.15,2013-03-07 16:45:00,
2013-03-07 08:55:00,42.4,39.7,29.91,WNW,298,0.0,0.0,90,0.00,,,0.00,Wunderground v.1.15,2013-03-07 16:55:00,
2013-03-07 09:00:00,42.9,40.5,29.91,SW,226,0.0,0.0,91,0.00,,,0.00,Wunderground v.1.15,2013-03-07 17:00:00,
2013-03-07 09:05:00,43.5,40.2,29.92,WSW,247,0.0,0.0,88,0.00,,,0.00,Wunderground v.1.15,2013-03-07 17:05:00,
2013-03-07 09:15:00,45.0,40.5,29.91,SW,223,0.0,0.0,84,0.00,,,0.00,Wunderground v.1.15,2013-03-07 17:15:00,
2013-03-07 09:20:00,45.9,41.6,29.91,SW,236,0.0,0.0,85,0.00,,,0.00,Wunderground v.1.15,2013-03-07 17:20:00,
2013-03-07 09:25:00,47.2,42.6,29.91,SSE,156,0.0,1.0,84,0.00,,,0.00,Wunderground v.1.15,2013-03-07 17:25:00,
2013-03-07 09:35:00,47.3,40.1,29.92,East,81,1.0,1.0,76,0.00,,,0.00,Wunderground v.1.15,2013-03-07 17:35:00,
2013-03-07 09:40:00,47.0,40.2,29.92,East,90,1.0,1.0,77,0.00,,,0.00,Wunderground v.1.15,2013-03-07 17:40:00,
2013-03-07 09:45:00,47.2,40.4,29.91,East,90,1.0,1.0,77,0.00,,,0.00,Wunderground v.1.15,2013-03-07 17:45:00,
2013-03-07 09:51:00,48.0,40.8,29.91,East,100,0.0,1.0,76,0.00,,,0.00,Wunderground v.1.15,2013-03-07 17:51:00,
2013-03-07 10:00:00,49.9,41.2,29.91,ESE,119,0.0,1.0,72,0.00,,,0.00,Wunderground v.1.15,2013-03-07 18:00:00,
2013-03-07 10:06:00,50.3,40.9,29.91,ESE,110,1.0,1.0,70,0.00,,,0.00,Wunderground v.1.15,2013-03-07 18:06:00,
2013-03-07 10:15:00,51.3,39.5,29.91,WSW,241,1.0,1.0,64,0.00,,,0.00,Wunderground v.1.15,2013-03-07 18:15:00,
2013-03-07 10:20:00,51.2,39.8,29.91,West,281,1.0,1.0,65,0.00,,,0.00,Wunderground v.1.15,2013-03-07 18:20:00,
2013-03-07 10:25:00,51.8,41.2,29.91,ENE,70,1.0,1.0,67,0.00,,,0.00,Wunderground v.1.15,2013-03-07 18:25:00,
2013-03-07 10:30:00,52.4,40.2,29.91,SSW,206,1.0,1.0,63,0.00,,,0.00,Wunderground v.1.15,2013-03-07 18:30:00,
2013-03-07 10:40:00,52.6,38.2,29.91,SE,134,1.0,1.0,58,0.00,,,0.00,Wunderground v.1.15,2013-03-07 18:40:00,
2013-03-07 10:45:00,52.6,39.1,29.91,SW,233,1.0,2.0,60,0.00,,,0.00,Wunderground v.1.15,2013-03-07 18:45:00,
2013-03-07 10:50:00,52.5,39.8,29.90,SSE,160,1.0,1.0,62,0.00,,,0.00,Wunderground v.1.15,2013-03-07 18:50:00,
2013-03-07 10:56:00,53.2,39.2,29.90,ESE,121,2.0,2.0,59,0.00,,,0.00,Wunderground v.1.15,2013-03-07 18:56:00,
2013-03-07 11:05:00,53.3,38.4,29.90,SW,234,1.0,4.0,57,0.00,,,0.00,Wunderground v.1.15,2013-03-07 19:05:00,
2013-03-07 11:15:00,52.8,38.0,29.90,WSW,239,3.0,3.0,57,0.00,,,0.00,Wunderground v.1.15,2013-03-07 19:15:00,
2013-03-07 11:20:00,52.8,37.5,29.90,NW,323,3.0,3.0,56,0.00,,,0.00,Wunderground v.1.15,2013-03-07 19:20:00,
2013-03-07 11:25:00,52.7,37.0,29.90,SSE,149,3.0,3.0,55,0.00,,,0.00,Wunderground v.1.15,2013-03-07 19:25:00,
2013-03-07 11:30:00,53.5,37.3,29.90,East,96,2.0,3.0,54,0.00,,,0.00,Wunderground v.1.15,2013-03-07 19:30:00,
2013-03-07 11:40:00,54.9,37.6,29.90,WSW,240,1.0,1.0,52,0.00,,,0.00,Wunderground v.1.15,2013-03-07 19:40:00,
2013-03-07 11:45:00,55.3,37.5,29.90,East,81,1.0,1.0,51,0.00,,,0.00,Wunderground v.1.15,2013-03-07 19:45:00,
2013-03-07 11:55:00,55.1,36.3,29.90,West,261,1.0,1.0,49,0.00,,,0.00,Wunderground v.1.15,2013-03-07 19:55:00,
2013-03-07 12:00:00,54.2,35.4,29.89,WNW,292,1.0,2.0,49,0.00,,,0.00,Wunderground v.1.15,2013-03-07 20:00:00,
2013-03-07 12:11:00,54.3,35.5,29.89,SSE,155,1.0,1.0,49,0.00,,,0.00,Wunderground v.1.15,2013-03-07 20:11:00,
2013-03-07 12:20:00,54.8,37.0,29.88,WSW,248,2.0,2.0,51,0.00,,,0.00,Wunderground v.1.15,2013-03-07 20:20:00,
2013-03-07 12:25:00,54.9,36.1,29.88,SSE,160,2.0,3.0,49,0.00,,,0.00,Wunderground v.1.15,2013-03-07 20:25:00,
2013-03-07 12:35:00,55.1,36.8,29.88,SE,141,2.0,2.0,50,0.00,,,0.00,Wunderground v.1.15,2013-03-07 20:35:00,
2013-03-07 12:40:00,54.9,35.6,29.87,ENE,72,2.0,2.0,48,0.00,,,0.00,Wunderground v.1.15,2013-03-07 20:40:00,
2013-03-07 12:45:00,55.1,36.3,29.87,SW,233,2.0,2.0,49,0.00,,,0.00,Wunderground v.1.15,2013-03-07 20:45:00,
2013-03-07 12:55:00,55.7,35.8,29.87,SSE,164,1.0,2.0,47,0.00,,,0.00,Wunderground v.1.15,2013-03-07 20:55:00,
2013-03-07 13:00:00,56.2,35.7,29.87,SSE,158,2.0,3.0,46,0.00,,,0.00,Wunderground v.1.15,2013-03-07 21:00:00,
2013-03-07 13:05:00,56.2,37.3,29.87,SE,144,3.0,3.0,49,0.00,,,0.00,Wunderground v.1.15,2013-03-07 21:05:00,
2013-03-07 13:15:00,55.4,35.5,29.86,SSE,167,2.0,2.0,47,0.00,,,0.00,Wunderground v.1.15,2013-03-07 21:15:00,
2013-03-07 13:20:00,55.6,37.2,29.86,SSE,165,2.0,2.0,50,0.00,,,0.00,Wunderground v.1.15,2013-03-07 21:20:00,
2013-03-07 13:25:00,55.7,36.3,29.86,East,91,2.0,3.0,48,0.00,,,0.00,Wunderground v.1.15,2013-03-07 21:25:00,
2013-03-07 13:30:00,55.6,35.7,29.86,SSE,162,2.0,3.0,47,0.00,,,0.00,Wunderground v.1.15,2013-03-07 21:30:00,
2013-03-07 13:40:00,56.2,36.2,29.85,SSE,163,1.0,2.0,47,0.00,,,0.00,Wunderground v.1.15,2013-03-07 21:40:00,
2013-03-07 13:45:00,56.1,36.1,29.85,SSW,200,1.0,2.0,47,0.00,,,0.00,Wunderground v.1.15,2013-03-07 21:45:00,
2013-03-07 13:50:00,56.3,37.4,29.85,NE,41,1.0,2.0,49,0.00,,,0.00,Wunderground v.1.15,2013-03-07 21:50:00,
2013-03-07 13:56:00,56.2,36.8,29.85,ESE,114,1.0,2.0,48,0.00,,,0.00,Wunderground v.1.15,2013-03-07 21:56:00,
2013-03-07 14:05:00,54.9,36.6,29.85,ESE,123,2.0,3.0,50,0.00,,,0.00,Wunderground v.1.15,2013-03-07 22:05:00,
2013-03-07 14:11:00,55.0,37.2,29.85,SE,141,1.0,1.0,51,0.00,,,0.00,Wunderground v.1.15,2013-03-07 22:11:00,
2013-03-07 14:20:00,55.5,36.1,29.85,SSE,156,1.0,3.0,48,0.00,,,0.00,Wunderground v.1.15,2013-03-07 22:20:00,
2013-03-07 14:30:00,55.9,37.0,29.84,South,182,2.0,3.0,49,0.00,,,0.00,Wunderground v.1.15,2013-03-07 22:30:00,
2013-03-07 14:35:00,55.4,35.5,29.84,SW,233,2.0,2.0,47,0.00,,,0.00,Wunderground v.1.15,2013-03-07 22:35:00,
2013-03-07 14:40:00,55.4,35.5,29.84,SSE,165,1.0,2.0,47,0.00,,,0.00,Wunderground v.1.15,2013-03-07 22:40:00,
2013-03-07 14:50:00,55.1,36.3,29.84,ESE,109,1.0,1.0,49,0.00,,,0.00,Wunderground v.1.15,2013-03-07 22:50:00,
2013-03-07 14:55:00,55.0,36.2,29.84,East,82,1.0,3.0,49,0.00,,,0.00,Wunderground v.1.15,2013-03-07 22:55:00,
2013-03-07 15:05:00,54.6,36.8,29.84,East,88,1.0,1.0,51,0.00,,,0.00,Wunderground v.1.15,2013-03-07 23:05:00,
2013-03-07 15:15:00,54.7,34.8,29.84,East,92,0.0,0.0,47,0.00,,,0.00,Wunderground v.1.15,2013-03-07 23:15:00,
2013-03-07 15:25:00,54.7,35.9,29.84,East,83,1.0,2.0,49,0.00,,,0.00,Wunderground v.1.15,2013-03-07 23:25:00,
2013-03-07 15:30:00,54.9,36.1,29.83,East,101,1.0,2.0,49,0.00,,,0.00,Wunderground v.1.15,2013-03-07 23:30:00,
2013-03-07 15:35:00,54.9,35.6,29.83,ESE,114,1.0,1.0,48,0.00,,,0.00,Wunderground v.1.15,2013-03-07 23:35:00,
2013-03-07 15:40:00,54.8,35.5,29.83,East,82,1.0,1.0,48,0.00,,,0.00,Wunderground v.1.15,2013-03-07 23:40:00,
2013-03-07 15:50:00,54.6,35.8,29.83,SE,138,1.0,2.0,49,0.00,,,0.00,Wunderground v.1.15,2013-03-07 23:50:00,
2013-03-07 15:55:00,54.3,35.0,29.83,East,101,1.0,1.0,48,0.00,,,0.00,Wunderground v.1.15,2013-03-07 23:55:00,
2013-03-07 16:00:00,54.1,35.3,29.83,ESE,109,1.0,1.0,49,0.00,,,0.00,Wunderground v.1.15,2013-03-08 00:00:00,
2013-03-07 16:06:00,54.2,35.4,29.83,ESE,119,0.0,1.0,49,0.00,,,0.00,Wunderground v.1.15,2013-03-08 00:06:00,
2013-03-07 16:15:00,54.2,35.4,29.83,SE,146,0.0,1.0,49,0.00,,,0.00,Wunderground v.1.15,2013-03-08 00:15:00,
2013-03-07 16:20:00,54.3,34.5,29.83,North,8,0.0,0.0,47,0.00,,,0.00,Wunderground v.1.15,2013-03-08 00:20:00,
2013-03-07 16:25:00,54.1,34.3,29.83,ENE,68,0.0,0.0,47,0.00,,,0.00,Wunderground v.1.15,2013-03-08 00:25:00,
2013-03-07 16:30:00,54.2,35.4,29.83,WNW,294,0.0,1.0,49,0.00,,,0.00,Wunderground v.1.15,2013-03-08 00:30:00,
2013-03-07 16:40:00,54.0,35.3,29.83,NE,53,0.0,0.0,49,0.00,,,0.00,Wunderground v.1.15,2013-03-08 00:40:00,
2013-03-07 16:45:00,54.0,35.8,29.83,NNE,22,0.0,0.0,50,0.00,,,0.00,Wunderground v.1.15,2013-03-08 00:45:00,
2013-03-07 16:50:00,54.0,36.3,29.83,NNE,21,0.0,0.0,51,0.00,,,0.00,Wunderground v.1.15,2013-03-08 00:50:00,
2013-03-07 17:00:00,53.6,36.4,29.83,NNE,21,0.0,0.0,52,0.00,,,0.00,Wunderground v.1.15,2013-03-08 01:00:00,
2013-03-07 17:05:00,53.4,35.7,29.83,West,265,0.0,0.0,51,0.00,,,0.00,Wunderground v.1.15,2013-03-08 01:05:00,
2013-03-07 17:11:00,53.2,36.0,29.83,North,358,0.0,0.0,52,0.00,,,0.00,Wunderground v.1.15,2013-03-08 01:11:00,
2013-03-07 17:20:00,52.6,35.9,29.82,West,269,0.0,0.0,53,0.00,,,0.00,Wunderground v.1.15,2013-03-08 01:20:00,
2013-03-07 17:25:00,52.6,37.3,29.82,SSE,153,0.0,0.0,56,0.00,,,0.00,Wunderground v.1.15,2013-03-08 01:25:00,
2013-03-07 17:30:00,51.9,37.6,29.83,SSE,153,0.0,0.0,58,0.00,,,0.00,Wunderground v.1.15,2013-03-08 01:30:00,
2013-03-07 17:35:00,51.4,36.2,29.82,SSE,153,0.0,0.0,56,0.00,,,0.00,Wunderground v.1.15,2013-03-08 01:35:00,
2013-03-07 17:40:00,51.4,35.8,29.82,NW,315,0.0,0.0,55,0.00,,,0.00,Wunderground v.1.15,2013-03-08 01:40:00,
2013-03-07 17:50:00,51.3,37.0,29.82,NNW,340,1.0,2.0,58,0.00,,,0.00,Wunderground v.1.15,2013-03-08 01:50:00,
2013-03-07 17:55:00,51.0,36.3,29.82,NNW,330,1.0,1.0,57,0.00,,,0.00,Wunderground v.1.15,2013-03-08 01:55:00,
2013-03-07 18:00:00,50.6,36.8,29.82,NNW,330,1.0,1.0,59,0.00,,,0.00,Wunderground v.1.15,2013-03-08 02:00:00,
2013-03-07 18:05:00,50.2,36.4,29.82,NNW,341,1.0,1.0,59,0.00,,,0.00,Wunderground v.1.15,2013-03-08 02:05:00,
2013-03-07 18:15:00,49.6,36.7,29.82,North,357,0.0,0.0,61,0.00,,,0.00,Wunderground v.1.15,2013-03-08 02:15:00,
2013-03-07 18:20:00,49.2,36.3,29.83,NNW,328,0.0,1.0,61,0.00,,,0.00,Wunderground v.1.15,2013-03-08 02:20:00,
2013-03-07 18:25:00,49.3,36.0,29.82,NNE,26,1.0,1.0,60,0.00,,,0.00,Wunderground v.1.15,2013-03-08 02:25:00,
2013-03-07 18:30:00,49.2,36.3,29.82,NNE,25,0.0,1.0,61,0.00,,,0.00,Wunderground v.1.15,2013-03-08 02:30:00,
2013-03-07 18:35:00,49.3,36.4,29.82,NW,319,0.0,0.0,61,0.00,,,0.00,Wunderground v.1.15,2013-03-08 02:35:00,
2013-03-07 18:45:00,48.9,36.9,29.82,NW,320,0.0,0.0,63,0.00,,,0.00,Wunderground v.1.15,2013-03-08 02:45:00,
2013-03-07 18:50:00,49.1,36.2,29.82,NW,321,0.0,1.0,61,0.00,,,0.00,Wunderground v.1.15,2013-03-08 02:50:00,
2013-03-07 18:55:00,49.3,36.4,29.83,WNW,300,0.0,0.0,61,0.00,,,0.00,Wunderground v.1.15,2013-03-08 02:55:00,
2013-03-07 19:00:00,49.0,36.5,29.83,West,272,0.0,1.0,62,0.00,,,0.00,Wunderground v.1.15,2013-03-08 03:00:00,
2013-03-07 19:06:00,48.8,36.8,29.83,East,85,1.0,1.0,63,0.00,,,0.00,Wunderground v.1.15,2013-03-08 03:06:00,
2013-03-07 19:15:00,48.2,37.8,29.83,NW,318,1.0,2.0,67,0.00,,,0.00,Wunderground v.1.15,2013-03-08 03:15:00,
2013-03-07 19:20:00,49.2,35.9,29.83,East,81,1.0,1.0,60,0.00,,,0.00,Wunderground v.1.15,2013-03-08 03:20:00,
2013-03-07 19:25:00,49.2,36.3,29.83,NW,326,2.0,2.0,61,0.00,,,0.00,Wunderground v.1.15,2013-03-08 03:25:00,
2013-03-07 19:30:00,49.7,36.4,29.82,East,86,2.0,2.0,60,0.00,,,0.00,Wunderground v.1.15,2013-03-08 03:30:00,
2013-03-07 19:35:00,49.7,36.4,29.83,NNE,24,1.0,2.0,60,0.00,,,0.00,Wunderground v.1.15,2013-03-08 03:35:00,
2013-03-07 19:45:00,49.9,37.0,29.83,North,358,0.0,1.0,61,0.00,,,0.00,Wunderground v.1.15,2013-03-08 03:45:00,
2013-03-07 19:51:00,49.7,37.2,29.83,North,358,0.0,0.0,62,0.00,,,0.00,Wunderground v.1.15,2013-03-08 03:51:00,
2013-03-07 20:00:00,49.7,36.4,29.83,West,262,0.0,0.0,60,0.00,,,0.00,Wunderground v.1.15,2013-03-08 04:00:00,
2013-03-07 20:05:00,50.1,35.9,29.83,NNW,347,1.0,1.0,58,0.00,,,0.00,Wunderground v.1.15,2013-03-08 04:05:00,
2013-03-07 20:15:00,49.8,36.0,29.82,North,352,0.0,0.0,59,0.00,,,0.00,Wunderground v.1.15,2013-03-08 04:15:00,
2013-03-07 20:20:00,49.6,36.3,29.83,ENE,61,0.0,0.0,60,0.00,,,0.00,Wunderground v.1.15,2013-03-08 04:20:00,
2013-03-07 20:25:00,49.5,37.4,29.83,NE,46,1.0,2.0,63,0.00,,,0.00,Wunderground v.1.15,2013-03-08 04:25:00,
2013-03-07 20:30:00,49.6,36.7,29.82,NE,46,1.0,2.0,61,0.00,,,0.00,Wunderground v.1.15,2013-03-08 04:30:00,
2013-03-07 20:36:00,49.3,36.4,29.83,NNE,15,1.0,1.0,61,0.00,,,0.00,Wunderground v.1.15,2013-03-08 04:36:00,
2013-03-07 20:45:00,49.2,35.9,29.83,NNE,14,0.0,0.0,60,0.00,,,0.00,Wunderground v.1.15,2013-03-08 04:45:00,
2013-03-07 20:50:00,49.1,36.2,29.83,NNW,333,0.0,0.0,61,0.00,,,0.00,Wunderground v.1.15,2013-03-08 04:50:00,
2013-03-07 20:55:00,49.3,36.0,29.83,ENE,65,0.0,0.0,60,0.00,,,0.00,Wunderground v.1.15,2013-03-08 04:55:00,
2013-03-07 21:00:00,49.2,36.3,29.83,NE,46,1.0,1.0,61,0.00,,,0.00,Wunderground v.1.15,2013-03-08 05:00:00,
2013-03-07 21:06:00,49.5,36.2,29.83,NE,34,1.0,1.0,60,0.00,,,0.00,Wunderground v.1.15,2013-03-08 05:06:00,
2013-03-07 21:10:00,49.4,36.9,29.83,NNE,12,0.0,1.0,62,0.00,,,0.00,Wunderground v.1.15,2013-03-08 05:10:00,
2013-03-07 21:20:00,49.3,36.8,29.83,North,356,0.0,0.0,62,0.00,,,0.00,Wunderground v.1.15,2013-03-08 05:20:00,
2013-03-07 21:25:00,49.2,35.9,29.83,NNE,18,0.0,1.0,60,0.00,,,0.00,Wunderground v.1.15,2013-03-08 05:25:00,
2013-03-07 21:30:00,49.5,36.2,29.83,ENE,64,1.0,1.0,60,0.00,,,0.00,Wunderground v.1.15,2013-03-08 05:30:00,
2013-03-07 21:36:00,49.4,36.1,29.83,NE,39,0.0,2.0,60,0.00,,,0.00,Wunderground v.1.15,2013-03-08 05:36:00,
2013-03-07 21:45:00,49.4,36.1,29.83,NE,37,1.0,1.0,60,0.00,,,0.00,Wunderground v.1.15,2013-03-08 05:45:00,
2013-03-07 21:50:00,49.5,36.6,29.83,West,277,1.0,1.0,61,0.00,,,0.00,Wunderground v.1.15,2013-03-08 05:50:00,
2013-03-07 21:55:00,49.4,36.1,29.83,ENE,65,1.0,1.0,60,0.00,,,0.00,Wunderground v.1.15,2013-03-08 05:55:00,
2013-03-07 22:00:00,49.5,37.0,29.83,NE,40,1.0,2.0,62,0.00,,,0.00,Wunderground v.1.15,2013-03-08 06:00:00,
2013-03-07 22:05:00,49.5,36.2,29.83,NE,46,2.0,2.0,60,0.00,,,0.00,Wunderground v.1.15,2013-03-08 06:05:00,
2013-03-07 22:15:00,49.5,36.6,29.83,ENE,64,1.0,2.0,61,0.00,,,0.00,Wunderground v.1.15,2013-03-08 06:15:00,
2013-03-07 22:20:00,49.1,37.0,29.83,ENE,60,2.0,2.0,63,0.00,,,0.00,Wunderground v.1.15,2013-03-08 06:20:00,
2013-03-07 22:25:00,48.9,36.9,29.83,ENE,60,2.0,2.0,63,0.00,,,0.00,Wunderground v.1.15,2013-03-08 06:25:00,
2013-03-07 22:30:00,49.3,36.8,29.83,NE,48,2.0,2.0,62,0.00,,,0.00,Wunderground v.1.15,2013-03-08 06:30:00,
2013-03-07 22:40:00,49.7,36.4,29.82,NW,313,1.0,2.0,60,0.00,,,0.00,Wunderground v.1.15,2013-03-08 06:40:00,
2013-03-07 22:45:00,49.6,35.8,29.82,NE,45,1.0,1.0,59,0.00,,,0.00,Wunderground v.1.15,2013-03-08 06:45:00,
2013-03-07 22:50:00,49.5,36.2,29.82,West,271,1.0,1.0,60,0.00,,,0.00,Wunderground v.1.15,2013-03-08 06:50:00,
2013-03-07 22:55:00,49.5,36.2,29.82,North,11,1.0,1.0,60,0.00,,,0.00,Wunderground v.1.15,2013-03-08 06:55:00,
2013-03-07 23:00:00,49.1,36.2,29.82,West,264,0.0,1.0,61,0.00,,,0.00,Wunderground v.1.15,2013-03-08 07:00:00,
2013-03-07 23:06:00,48.6,36.6,29.82,ENE,67,0.0,1.0,63,0.00,,,0.00,Wunderground v.1.15,2013-03-08 07:06:00,
2013-03-07 23:15:00,48.4,36.0,29.82,NW,307,1.0,3.0,62,0.00,,,0.00,Wunderground v.1.15,2013-03-08 07:15:00,
2013-03-07 23:20:00,48.0,35.2,29.82,West,274,0.0,3.0,61,0.00,,,0.00,Wunderground v.1.15,2013-03-08 07:20:00,
2013-03-07 23:30:00,47.3,35.7,29.82,North,360,0.0,0.0,64,0.00,,,0.00,Wunderground v.1.15,2013-03-08 07:30:00,
2013-03-07 23:35:00,46.9,35.4,29.81,NW,316,0.0,1.0,64,0.00,,,0.00,Wunderground v.1.15,2013-03-08 07:35:00,
2013-03-07 23:40:00,46.5,35.4,29.81,NNE,27,0.0,0.0,65,0.00,,,0.00,Wunderground v.1.15,2013-03-08 07:40:00,
2013-03-07 23:45:00,46.4,35.7,29.81,West,271,0.0,0.0,66,0.00,,,0.00,Wunderground v.1.15,2013-03-08 07:45:00,
2013-03-07 23:50:00,45.9,35.6,29.81,NNE,33,0.0,0.0,67,0.00,,,0.00,Wunderground v.1.15,2013-03-08 07:50:00,
2013-03-07 23:56:00,45.5,35.5,29.81,WNW,287,0.0,0.0,68,0.00,,,0.00,Wunderground v.1.15,2013-03-08 07:56:00,